[[{"header":{"parameterUnit":"m.s-1","parameterCategory":1,"la1":30.2991,"la2":30.254,"lo1":-89.0895,"lo2":-89.0444,"dy":0.0017,"dx":0.0017,"nx":28,"ny":28,"refTime":"2024-11-27T09:00:00:Z","depth":0,"parameterNumber":2,"parameterNumberName":"U-component_of_WINDS"},"data":[0,0,0,0,0,0,0,0,0,0,0,0,0,0,0,0,0,0,0,0,0,0,0,0,0,0,0,0,0,0,0,0,0,0,0,0,0,0,0,0,0,0,0,0,0,0,0,0,0,0,0,0,0,0,0,0,0,0,-0.7355,-0.7354,0,-0.7253,-0.7252,-0.7251,-0.7224,-0.7225,-0.7225,-0.7226,-0.7122,-0.7119,-0.7115,0,0,0,0,0,0,0,0,0,0,0,0,0,-0.7525,-0.7522,-0.7355,-0.7353,-0.7352,-0.7253,-0.7252,-0.725,-0.7224,-0.7225,-0.7226,-0.7226,-0.7123,-0.7119,-0.7115,0,0,0,0,0,0,0,0,0,0,0,0,0,-0.744,-0.7521,-0.7355,-0.7327,-0.7324,-0.7254,-0.7252,-0.725,-0.7224,-0.7225,-0.7226,-0.7227,-0.7124,-0.712,-0.7115,-0.7065,0,0,-0.7099,-0.7097,0,0,0,0,0,0,0,0,-0.7445,-0.7434,-0.7332,-0.7329,-0.7325,-0.7252,-0.7274,-0.7188,-0.7224,-0.7262,-0.7226,-0.7227,-0.7165,-0.7156,-0.7135,-0.706,-0.7056,-0.7099,-0.7096,-0.7094,-0.7092,0,0,0,0,0,0,0,-0.745,-0.7438,-0.7315,-0.7331,-0.7326,-0.7319,-0.7308,-0.7257,-0.7209,-0.7259,-0.7256,-0.7245,-0.7163,-0.714,-0.7133,-0.7054,-0.7099,-0.7094,-0.7091,-0.7089,-0.6931,-0.693,0,0,0,0,0,0,-0.7461,-0.7443,-0.7318,-0.7311,-0.7388,-0.7315,-0.7303,-0.7275,-0.721,-0.7201,-0.7244,-0.7244,-0.7148,-0.7138,-0.7129,-0.7065,-0.7094,-0.7089,-0.7086,-0.6932,-0.6931,-0.6929,0,0,0,0,0,0,-0.7465,-0.745,-0.7322,-0.7376,-0.736,-0.7312,-0.728,-0.7272,-0.725,-0.7199,-0.719,-0.723,-0.7149,-0.7136,-0.708,-0.7061,-0.7087,-0.7082,-0.6933,-0.6932,-0.693,-0.6938,0,0,0,0,0,0,-0.747,-0.7452,-0.7433,-0.7376,-0.7357,-0.7276,-0.7279,-0.7269,-0.7241,-0.724,-0.7183,-0.7175,-0.7148,-0.7088,-0.7076,-0.7054,-0.7078,-0.6935,-0.6933,-0.693,-0.6939,-0.6936,-0.6934,0,0,0,0,0,-0.7476,-0.744,-0.7432,-0.7417,-0.7332,-0.7275,-0.7263,-0.7234,-0.724,-0.722,-0.7187,-0.7176,-0.7065,-0.7083,-0.7068,-0.7045,-0.6936,-0.6933,-0.6931,-0.694,-0.6937,-0.6934,0,0,0,0,0,0,-0.7496,-0.7432,-0.7423,-0.7367,-0.7326,-0.727,-0.7245,-0.7232,-0.7189,-0.719,-0.7155,-0.7142,-0.7089,-0.7062,-0.7082,-0.6993,-0.7,-0.6995,-0.7013,-0.7009,-0.7007,-0.7014,-0.7074,0,0,0,0,0,-0.7494,-0.7453,-0.7399,-0.7355,-0.7335,-0.7293,-0.7267,-0.7248,-0.7204,-0.7187,-0.715,-0.7108,-0.7063,-0.7035,-0.6991,-0.6935,-0.6921,-0.6912,-0.691,-0.6908,-0.6903,-0.6869,-0.6864,-0.692,-0.692,-0.692,0,0,-0.7489,-0.7449,-0.7425,-0.7358,-0.7324,-0.7281,-0.7279,-0.7235,-0.7202,-0.718,-0.7125,-0.7097,-0.7047,-0.6991,-0.6964,-0.6967,-0.6884,-0.6904,-0.6903,-0.6899,-0.6866,-0.6861,-0.6856,-0.6919,-0.6919,-0.6919,0,0,-0.7459,-0.7425,-0.7383,-0.7349,-0.7298,-0.727,-0.726,-0.7205,-0.7185,-0.7129,-0.7111,-0.7072,-0.6997,-0.6962,-0.6934,-0.6888,-0.6876,-0.6875,-0.6862,-0.6829,-0.6825,-0.6821,-0.6803,-0.6797,-0.687,-0.687,-0.687,0,-0.7459,-0.7395,-0.7364,-0.7319,-0.7289,-0.7267,-0.7224,-0.7192,-0.7129,-0.7109,-0.7113,-0.7016,-0.6981,-0.6915,-0.6904,-0.6883,-0.6869,-0.6881,-0.6828,-0.6824,-0.6819,-0.6802,-0.6795,-0.687,-0.687,-0.687,-0.687,0,-0.7397,-0.7352,-0.7325,-0.7264,-0.7231,-0.7188,-0.715,-0.712,-0.7103,-0.7074,-0.7017,-0.6974,-0.6921,-0.6904,-0.6887,-0.6835,-0.6838,-0.6835,-0.6842,-0.6815,-0.6797,-0.6791,-0.687,-0.687,-0.687,-0.687,0,0,-0.7377,-0.7298,-0.7289,-0.726,-0.72,-0.7165,-0.712,-0.7067,-0.7041,-0.6998,-0.6959,-0.6895,-0.6891,-0.686,-0.6839,-0.6811,-0.6775,-0.6811,-0.681,-0.6805,-0.6712,-0.6714,-0.6707,-0.6767,-0.6765,-0.6764,-0.6716,0,-0.7338,-0.7257,-0.7227,-0.716,-0.7118,-0.7094,-0.7055,-0.7014,-0.6986,-0.6945,-0.6914,-0.6868,-0.6868,-0.6849,-0.682,-0.6785,-0.6755,-0.6789,-0.6729,-0.6727,-0.6741,-0.6698,-0.67,-0.6656,-0.6709,-0.6708,-0.6707,0,-0.7283,-0.7238,-0.7167,-0.711,-0.7091,-0.7057,-0.7004,-0.6966,-0.6918,-0.69,-0.6864,-0.6844,-0.6795,-0.6805,-0.6736,-0.676,-0.6733,-0.6713,-0.671,-0.6703,-0.6715,-0.6688,-0.6642,-0.6635,-0.6697,-0.6697,-0.6698,0,-0.7274,-0.7196,-0.7142,-0.7118,-0.7052,-0.7028,-0.6999,-0.6952,-0.6922,-0.6876,-0.6855,-0.6805,-0.6777,-0.6738,-0.6705,-0.6716,-0.6639,-0.6647,-0.6621,-0.6622,-0.6606,-0.6607,-0.6553,-0.659,-0.659,-0.659,-0.6591,0,-0.7233,-0.719,-0.7137,-0.7104,-0.7055,-0.702,-0.6972,-0.6942,-0.69,-0.686,-0.6837,-0.68,-0.6759,-0.6716,-0.669,-0.6636,-0.6624,-0.6607,-0.66,-0.6609,-0.6611,-0.659,-0.6592,-0.6589,-0.6589,-0.6589,-0.659,0,-0.7215,-0.7178,-0.7118,-0.7059,-0.7043,-0.701,-0.6959,-0.6926,-0.6896,-0.6846,-0.6832,-0.6785,-0.6733,-0.6696,-0.6631,-0.6613,-0.6554,-0.6548,-0.657,-0.6567,-0.6543,-0.6545,-0.6474,-0.6462,-0.6508,-0.6507,-0.6507,0,-0.7192,-0.7158,-0.7095,-0.7066,-0.7037,-0.6992,-0.696,-0.6924,-0.6891,-0.6833,-0.6806,-0.6753,-0.6709,-0.6627,-0.6587,-0.6536,-0.6528,-0.6506,-0.652,-0.6529,-0.6526,-0.6528,-0.6524,-0.6504,-0.6504,-0.6503,-0.6503,0,-0.7153,-0.7136,-0.7091,-0.7038,-0.7001,-0.6958,-0.6915,-0.6893,-0.6849,-0.6813,-0.676,-0.6725,-0.6657,-0.6604,-0.6548,-0.6518,-0.6503,-0.6499,-0.649,-0.6498,-0.6511,-0.6502,-0.6564,-0.6501,-0.6501,-0.6501,-0.6501,-0.6502,-0.7131,-0.7099,-0.7049,-0.6999,-0.6962,-0.6922,-0.6887,-0.6852,-0.6807,-0.6748,-0.6729,-0.6673,-0.6624,-0.6548,-0.6517,-0.6472,-0.6473,-0.6461,-0.6457,-0.6455,-0.6454,-0.6519,-0.6462,-0.6462,-0.6462,-0.6462,-0.6462,0,-0.709,-0.7056,-0.7011,-0.695,-0.691,-0.6899,-0.685,-0.6817,-0.6768,-0.6724,-0.668,-0.6617,-0.6565,-0.652,-0.6466,-0.6439,-0.643,-0.6426,-0.6427,-0.642,-0.6457,-0.647,-0.6433,-0.6433,-0.6433,-0.6433,-0.6433,-0.6433,-0.7065,-0.7009,-0.6985,-0.6911,-0.6877,-0.6822,-0.6795,-0.6757,-0.6721,-0.6652,-0.6608,-0.6579,-0.6534,-0.6475,-0.6427,-0.6414,-0.6395,-0.6392,-0.6378,-0.6414,-0.6417,-0.6421,-0.6432,-0.6388,-0.6388,-0.6344,-0.6344,-0.6344]},{"header":{"parameterUnit":"m.s-1","parameterCategory":1,"la1":30.2991,"la2":30.254,"lo1":-89.0895,"lo2":-89.0444,"dy":0.0017,"dx":0.0017,"nx":28,"ny":28,"refTime":"2024-11-27T09:00:00:Z","depth":0,"parameterNumber":3,"parameterNumberName":"V-component_of_WINDS"},"data":[0,0,0,0,0,0,0,0,0,0,0,0,0,0,0,0,0,0,0,0,0,0,0,0,0,0,0,0,0,0,0,0,0,0,0,0,0,0,0,0,0,0,0,0,0,0,0,0,0,0,0,0,0,0,0,0,0,0,3.6467,3.6467,0,3.6461,3.6461,3.6461,3.6441,3.6441,3.644,3.644,3.6431,3.6431,3.6431,0,0,0,0,0,0,0,0,0,0,0,0,0,3.6458,3.6458,3.6467,3.6467,3.6467,3.6461,3.6461,3.6461,3.6441,3.6441,3.644,3.644,3.6431,3.6431,3.6431,0,0,0,0,0,0,0,0,0,0,0,0,0,3.6458,3.6458,3.6467,3.6456,3.6455,3.6461,3.6461,3.6461,3.6442,3.6441,3.644,3.644,3.6431,3.6431,3.6431,3.6446,0,0,3.6432,3.6432,0,0,0,0,0,0,0,0,3.6458,3.6458,3.6458,3.6457,3.6456,3.6451,3.6455,3.6456,3.6442,3.6447,3.644,3.6439,3.6438,3.6438,3.6438,3.6445,3.6445,3.6432,3.6432,3.6432,3.6432,0,0,0,0,0,0,0,3.6458,3.6458,3.6464,3.6458,3.6457,3.6451,3.645,3.6455,3.6446,3.6446,3.6445,3.6445,3.6437,3.6438,3.6437,3.6445,3.6432,3.6432,3.6432,3.6432,3.6466,3.6467,0,0,0,0,0,0,3.646,3.6459,3.6465,3.6464,3.6455,3.6452,3.6451,3.6453,3.6446,3.6444,3.6445,3.6444,3.6438,3.6437,3.6437,3.6455,3.6432,3.6432,3.6433,3.6465,3.6466,3.6467,0,0,0,0,0,0,3.646,3.6461,3.6465,3.6461,3.6461,3.6453,3.6456,3.6454,3.6454,3.6445,3.6443,3.6447,3.6437,3.6437,3.6445,3.6455,3.6433,3.6433,3.6464,3.6466,3.6467,3.6491,0,0,0,0,0,0,3.646,3.6461,3.6467,3.6461,3.6462,3.6473,3.6456,3.6454,3.6455,3.6453,3.6447,3.6445,3.6436,3.6444,3.6445,3.6455,3.6433,3.6464,3.6465,3.6466,3.649,3.6493,3.6496,0,0,0,0,0,3.6459,3.6472,3.6467,3.6468,3.6469,3.6474,3.6474,3.6465,3.6456,3.6462,3.6456,3.6445,3.6453,3.6445,3.6446,3.6456,3.6463,3.6465,3.6466,3.6488,3.6492,3.6496,0,0,0,0,0,0,3.6477,3.6471,3.6465,3.6477,3.6477,3.647,3.6477,3.6469,3.647,3.6468,3.6456,3.6454,3.6464,3.646,3.6451,3.6471,3.6456,3.6458,3.6473,3.6477,3.648,3.6481,3.6433,0,0,0,0,0,3.6483,3.6488,3.6482,3.6493,3.6494,3.6486,3.6487,3.6481,3.6479,3.6478,3.6473,3.6471,3.6473,3.6474,3.6476,3.6489,3.6488,3.6496,3.6499,3.6502,3.6504,3.6513,3.6517,3.6473,3.6473,3.6473,0,0,3.6494,3.6491,3.6495,3.6497,3.6496,3.6501,3.6485,3.6491,3.6495,3.6478,3.6487,3.6483,3.6479,3.649,3.6495,3.6487,3.6516,3.6504,3.6506,3.6507,3.6515,3.6519,3.6523,3.6474,3.6474,3.6473,0,0,3.6517,3.6516,3.6526,3.6525,3.6524,3.6519,3.6522,3.6517,3.6515,3.6523,3.6511,3.6515,3.6518,3.6517,3.6517,3.6543,3.6533,3.6543,3.6561,3.6569,3.6573,3.6576,3.6586,3.659,3.6545,3.6545,3.6545,0,3.6531,3.654,3.6532,3.654,3.6541,3.6528,3.6538,3.6537,3.6536,3.6537,3.6529,3.6536,3.6532,3.6544,3.655,3.655,3.6553,3.6544,3.6573,3.6576,3.6579,3.6589,3.6593,3.6546,3.6546,3.6546,3.6546,0,3.6558,3.6564,3.6572,3.6574,3.6576,3.6585,3.6578,3.6581,3.6575,3.6571,3.658,3.6575,3.6577,3.6579,3.6571,3.659,3.6586,3.6575,3.6561,3.6585,3.6594,3.6597,3.6548,3.6548,3.6547,3.6547,0,0,3.6592,3.659,3.6594,3.6595,3.6594,3.6598,3.6607,3.661,3.6613,3.6613,3.662,3.6625,3.6616,3.6616,3.6609,3.6616,3.6639,3.6605,3.6605,3.6613,3.6661,3.6669,3.6674,3.6632,3.6633,3.6633,3.6661,0,3.6616,3.6632,3.6625,3.6642,3.6649,3.6637,3.6644,3.6644,3.6641,3.6645,3.6641,3.6645,3.6632,3.6633,3.6639,3.6634,3.6648,3.6632,3.6639,3.6639,3.6642,3.6679,3.6687,3.6714,3.6665,3.6665,3.6666,0,3.6645,3.6649,3.6667,3.6667,3.6669,3.6677,3.668,3.6684,3.6684,3.6681,3.6682,3.6673,3.6682,3.6667,3.6679,3.6668,3.667,3.6669,3.6669,3.6671,3.6655,3.6682,3.6723,3.6727,3.6671,3.6671,3.667,0,3.6671,3.668,3.6693,3.6694,3.6693,3.6699,3.6698,3.6698,3.6701,3.6703,3.6705,3.6707,3.6709,3.6711,3.6704,3.6693,3.6717,3.6701,3.6715,3.6716,3.6721,3.6721,3.6764,3.672,3.672,3.672,3.672,0,3.6699,3.6711,3.6705,3.6712,3.6726,3.6718,3.6731,3.6729,3.6729,3.6736,3.6724,3.6731,3.672,3.6726,3.6719,3.6731,3.6731,3.6729,3.6728,3.6731,3.6732,3.6733,3.6732,3.6721,3.6721,3.6721,3.6721,0,3.673,3.6726,3.6739,3.6738,3.6739,3.6748,3.6747,3.6754,3.6751,3.676,3.6762,3.6755,3.6762,3.6754,3.6759,3.6755,3.6772,3.6766,3.6772,3.6772,3.6787,3.6786,3.6833,3.684,3.679,3.6791,3.6791,0,3.6749,3.6758,3.6759,3.6764,3.6766,3.6773,3.6777,3.6769,3.6774,3.6775,3.6782,3.6788,3.6792,3.6803,3.6798,3.6802,3.6798,3.6814,3.6798,3.6802,3.68,3.6801,3.6802,3.6818,3.6818,3.6819,3.6819,0,3.6784,3.6782,3.6789,3.6795,3.6801,3.6805,3.6808,3.6812,3.6805,3.681,3.6818,3.6821,3.6828,3.6834,3.6837,3.6835,3.6827,3.6824,3.6828,3.6832,3.6837,3.6837,3.6783,3.6823,3.6823,3.6823,3.6822,3.6822,3.681,3.6819,3.6822,3.683,3.6833,3.6837,3.6844,3.6842,3.6849,3.6855,3.685,3.6859,3.686,3.6863,3.6863,3.687,3.6863,3.6868,3.687,3.6871,3.6875,3.6835,3.687,3.687,3.687,3.687,3.687,0,3.6846,3.6848,3.6856,3.6862,3.6869,3.6861,3.6865,3.6871,3.688,3.6882,3.6887,3.6897,3.6903,3.69,3.6905,3.6912,3.6908,3.6913,3.6913,3.6914,3.688,3.6877,3.6917,3.6917,3.6917,3.6917,3.6917,3.6917,3.6866,3.6881,3.688,3.6896,3.6897,3.6908,3.6911,3.6915,3.6917,3.6929,3.6935,3.6933,3.6933,3.6939,3.6945,3.6943,3.6947,3.6954,3.6952,3.692,3.6916,3.6911,3.6909,3.6955,3.6955,3.6985,3.6986,3.6986]}]]